Location: �clusier
(49.9361°N, 2.7869°E)
Time: 05:06:58
(UTC+00:00)

Cosmos 2016 Rocket - Pass Details

Date: 23 October 2021
Orbit: 947 x 1000 km, 83.0° (Epoch: 05 December)

Event Time Altitude Azimuth Distance (km) Brightness Sun altitude
Exits shadow 22:28:58 10° 315° (NW) 2,692 6.7 -49.6°
Drops below altitude 10° 22:29:09 10° 316° (NW) 2,699 6.8 -49.6°
Sets 22:34:48 0° 358° (N) 3,639 7.6 -50.0°
